Regional Weather Roundup
Issued by NWS Mobile, AL

Home | Current Version | Previous Version | Text Only | Print | Product List | Glossary On
Versions: 1 2 3 4 5 6 7 8 9 10 11 12 13 14 15 16 17 18 19 20 21 22 23 24 25 26 27
000
ASUS44 KMOB 212312
RWRMOB
REGIONAL WEATHER ROUNDUP
NATIONAL WEATHER SERVICE MOBILE AL
500 PM CST TUE FEB 21 2017

NOTE: "FAIR" INDICATES FEW OR NO CLOUDS BELOW 12,000 FEET WITH NO
      SIGNIFICANT WEATHER AND/OR OBSTRUCTIONS TO VISIBILITY.

  * THESE STATIONS ARE PART OF THE UNIVERSITY OF SOUTH ALABAMA
    MESONET AND ARE NOT UNDER NWS OR FAA QUALITY CONTROL.

ALZ061>064-220000-
COASTAL ALABAMA

CITY           SKY/WX    TMP DP  RH WIND       PRES   REMARKS
MOBILE REG APT CLOUDY    66  60  81 E7        29.86S
BROOKLEY FIELD CLOUDY    65  63  93 E8        29.87S
USA CAMPUS*    NOT AVBL
DOG RIVER*     NOT AVBL


CITY           SKY/WX    TMP DP  RH WIND       PRES   REMARKS
GULF SHORES    CLOUDY    63  63 100 CALM      29.87R

$$

ALZ051>060-220000-
INTERIOR SOUTHWEST AND SOUTH CENTRAL ALABAMA

CITY           SKY/WX    TMP DP  RH WIND       PRES   REMARKS
GREENVILLE     LGT RAIN  61  58  90 SE3       29.90S FOG
EVERGREEN      CLOUDY    62  59  90 SE6       29.88S
ATMORE*        NOT AVBL
ANDALUSIA/OPP  RAIN      63  60  90 E12       29.89F
ANDALUSIA*     NOT AVBL
FLORALA APT    RAIN      61  59  93 E8        29.91F
FLORALA*       NOT AVBL

$$

FLZ001>006-220000-
WESTERN FLORIDA PANHANDLE

CITY           SKY/WX    TMP DP  RH WIND       PRES   REMARKS
PENSACOLA      LGT RAIN  64  61  90 E10       29.85S
NAS PENSACOLA  LGT RAIN  64  62  93 E8        29.86S FOG
MILTON         LGT RAIN  61  60  97 E7        29.87R
WHTNG S FIELD  LGT RAIN  65  62  90 E8        29.87R


CITY           SKY/WX    TMP DP  RH WIND       PRES   REMARKS
JAY*           NOT AVBL
DUKE FIELD     LGT RAIN  61  59  95 E8        29.87F
CRESTVIEW      RAIN      61  59  93 NE8       29.88F FOG
VALPARAISO     LGT RAIN  61  61 100 E9        29.87F
DESTIN         LGT RAIN  64  32  30 E10       29.87F

$$

MSZ076-079-220000-
INTERIOR SOUTHEAST MISSISSIPPI

CITY           SKY/WX    TMP DP  RH WIND       PRES   REMARKS
LEAKESVILLE*   NOT AVBL
AGRICOLA*      NOT AVBL

$$

MARINE OBSERVATIONS

STATION/POSITION TIME  TEMP    WIND        PRES    WAVE
                       AIR SEA DIR/SP/G            HT/PER
                 (UTC) (F)     (DEG/KT/KT) (MB)    (FT/S)
PASCAGOULA       2248   67     180/  3/  4 1010.7R
PETIT BOIS ISLND 2248   65     170/  4/  5 1011.8R
GRAND BAY        2130   65     310/  4     1012.0S
KATRINA CUT      2230          260/  6     1011.2R
CEDAR POINT      2230   65     250/  6     1011.2R
E DAUPHIN ISLAND 2200   64     240/  6/  8 1010.5F
MIDDLE BAY LIGHT 2230   64     120/ 11     1011.2R
USCG MOBILE BAY  2248   63 66  100/  7/  9 1011.7R
STATE DOCKS      2248   63 63              1011.2R
MEAHER PARK      2230   63      40/  2     1011.2R
WEEKS BAY        2145   64                   N/A
FORT MORGAN      2248   64     270/  6/  7   N/A
12 S ORANGE BCH  2250   65 68  140/  8/ 10 1011.2R   2/ 6
PENSACOLA BAY    2248          100/  3/  7 1011.1F
67 S FORT MORGAN 2230   65        CALM     1010.8S

$$

SELECTED LOCATIONS ACROSS THE REGION

CITY           SKY/WX    TMP DP  RH WIND       PRES   REMARKS
NEW ORLEANS    LGT RAIN  62  58  86 CALM      29.85F
GULFPORT       PTCLDY    67  59  75 S5        29.84S
PASCAGOULA AP  PTCLDY    67  57  70 CALM      29.85R
PASCAGOULA*    NOT AVBL
HATTIESBURG    PTCLDY    68  56  65 N3        29.85R
LAUREL         CLEAR     68  52  56 CALM      29.86S
MERIDIAN       PTCLDY    67  61  81 E3        29.84F
JACKSON        PTCLDY    69  53  56 NW3       29.83S
MONTGOMERY     LGT RAIN  62  58  86 E9        29.91F
TROY           LGT RAIN  60  60 100 E7        29.93F FOG
ASHFORD*       NOT AVBL
DOTHAN         RAIN      60  60 100 N5        29.97S FOG
PANAMA CITY    RAIN      62  60  93 N10       29.89F FOG

$$





USA.gov is the U.S. government's official web portal to all federal, state and local government web resources and services.